When you browse on this site, cookies collect data to enhance your experience and personalize the content and advertising you see.
Visit our Privacy Policy to learn more. By continuing to use the site, you agree to this use of cookies and data.
  • în România
  • Lista ţărilor
  • Pe 7 zile
  • Temperatura apei
  • Meteo pe hartă
  • Widget-uri
  • user-avatar
    Intrare

    Meteo pe oră la Elbasan

    Astăzi, 24 Ianuarie, Vineri

    Timp Temperatura Precipitaţii Vânt Presiune Umiditate
    00:00 +3°C° 0 mm 3 m/s 744 mmHg 53%
    01:00 +4°C° 0 mm 3 m/s 744 mmHg 53%
    02:00 +5°C° 0 mm 2 m/s 744 mmHg 51%
    03:00 +4°C° 0 mm 2 m/s 744 mmHg 50%
    04:00 +4°C° 0 mm 2 m/s 744 mmHg 48%
    05:00 +4°C° 0 mm 2 m/s 745 mmHg 48%
    06:00 +4°C° 0 mm 2 m/s 745 mmHg 48%
    07:00 +4°C° 0 mm 2 m/s 745 mmHg 48%
    08:00 +7°C° 0 mm 1 m/s 745 mmHg 46%
    09:00 +9°C° 0 mm 1 m/s 746 mmHg 44%
    10:00 +10°C° 0 mm 0 m/s 746 mmHg 42%
    11:00 +12°C° 0 mm 1 m/s 745 mmHg 41%
    12:00 +13°C° 0 mm 1 m/s 745 mmHg 41%
    13:00 +14°C° 0 mm 1 m/s 745 mmHg 39%
    14:00 +13°C° 0 mm 1 m/s 745 mmHg 45%
    15:00 +12°C° 0 mm 1 m/s 744 mmHg 51%
    16:00 +11°C° 0 mm 1 m/s 744 mmHg 57%
    17:00 +10°C° 0 mm 1 m/s 744 mmHg 60%
    18:00 +9°C° 0 mm 1 m/s 744 mmHg 64%
    19:00 +8°C° 0 mm 1 m/s 744 mmHg 67%
    20:00 +8°C° 0 mm 1 m/s 744 mmHg 70%
    21:00 +8°C° 0 mm 1 m/s 744 mmHg 72%
    22:00 +7°C° 0 mm 1 m/s 744 mmHg 75%
    23:00 +7°C° 0 mm 1 m/s 744 mmHg 76%

    Mâine, 25 Ianuarie, Sâmbătă

    Timp Temperatura Precipitaţii Vânt Presiune Umiditate
    00:00 +7°C° 0 mm 1 m/s 744 mmHg 78%
    01:00 +7°C° 0 mm 1 m/s 743 mmHg 79%
    02:00 +7°C° 0 mm 1 m/s 743 mmHg 79%
    03:00 +7°C° 0 mm 1 m/s 743 mmHg 80%
    04:00 +7°C° 0 mm 1 m/s 743 mmHg 80%
    05:00 +7°C° 0 mm 1 m/s 742 mmHg 81%
    06:00 +7°C° 0 mm 1 m/s 742 mmHg 81%
    07:00 +7°C° 0 mm 1 m/s 742 mmHg 81%
    08:00 +8°C° 0 mm 1 m/s 742 mmHg 77%
    09:00 +10°C° 0 mm 1 m/s 743 mmHg 72%
    10:00 +12°C° 0 mm 1 m/s 743 mmHg 68%
    11:00 +12°C° 0 mm 1 m/s 742 mmHg 68%
    12:00 +13°C° 0 mm 1 m/s 742 mmHg 67%
    13:00 +13°C° 0 mm 1 m/s 741 mmHg 67%
    14:00 +13°C° 0 mm 1 m/s 741 mmHg 71%
    15:00 +12°C° 0 mm 1 m/s 741 mmHg 75%
    16:00 +12°C° 0 mm 1 m/s 741 mmHg 78%
    17:00 +11°C° 0 mm 1 m/s 741 mmHg 80%
    18:00 +11°C° 0 mm 1 m/s 741 mmHg 81%
    19:00 +9°C° 0 mm 0 m/s 741 mmHg 82%
    20:00 +9°C° 0 mm 0 m/s 741 mmHg 82%
    21:00 +10°C° 0 mm 1 m/s 741 mmHg 82%
    22:00 +10°C° 0 mm 1 m/s 741 mmHg 82%
    23:00 +10°C° 0 mm 1 m/s 741 mmHg 81%

    Poimâine, 26 Ianuarie, Duminică

    Timp Temperatura Precipitaţii Vânt Presiune Umiditate
    00:00 +10°C° 0 mm 1 m/s 741 mmHg 80%
    01:00 +10°C° 0 mm 1 m/s 741 mmHg 80%
    02:00 +9°C° 0 mm 1 m/s 741 mmHg 80%
    03:00 +9°C° 0 mm 1 m/s 740 mmHg 79%
    04:00 +9°C° 0 mm 1 m/s 740 mmHg 79%
    05:00 +9°C° 0 mm 1 m/s 740 mmHg 79%
    06:00 +9°C° 0 mm 1 m/s 740 mmHg 79%
    07:00 +9°C° 0 mm 1 m/s 740 mmHg 79%
    08:00 +10°C° 0 mm 1 m/s 740 mmHg 73%
    09:00 +11°C° 0 mm 1 m/s 740 mmHg 68%
    10:00 +13°C° 0 mm 1 m/s 740 mmHg 62%
    11:00 +13°C° 0 mm 1 m/s 740 mmHg 61%
    12:00 +14°C° 0 mm 1 m/s 739 mmHg 59%
    13:00 +14°C° 0 mm 1 m/s 739 mmHg 58%
    14:00 +14°C° 0 mm 1 m/s 739 mmHg 62%
    15:00 +13°C° 0 mm 1 m/s 739 mmHg 67%
    16:00 +13°C° 0 mm 1 m/s 738 mmHg 71%
    17:00 +12°C° 0 mm 1 m/s 738 mmHg 72%
    18:00 +11°C° 0 mm 1 m/s 738 mmHg 73%
    19:00 +11°C° 0 mm 1 m/s 738 mmHg 75%
    20:00 +10°C° 0 mm 1 m/s 738 mmHg 75%
    21:00 +10°C° 0 mm 1 m/s 738 mmHg 74%
    22:00 +10°C° 0 mm 1 m/s 738 mmHg 74%
    23:00 +10°C° 0 mm 1 m/s 737 mmHg 75%

    27 Ianuarie, Luni

    Timp Temperatura Precipitaţii Vânt Presiune Umiditate
    00:00 +10°C° 0 mm 1 m/s 737 mmHg 75%
    01:00 +10°C° 0 mm 1 m/s 737 mmHg 76%
    02:00 +10°C° 0.8 mm 1 m/s 736 mmHg 80%
    03:00 +9°C° 0.8 mm 1 m/s 736 mmHg 85%
    04:00 +9°C° 0.8 mm 1 m/s 735 mmHg 89%
    05:00 +9°C° 2.5 mm 1 m/s 735 mmHg 91%
    06:00 +9°C° 2.5 mm 1 m/s 735 mmHg 93%
    07:00 +9°C° 2.5 mm 1 m/s 735 mmHg 96%
    08:00 +9°C° 0.9 mm 1 m/s 735 mmHg 94%
    09:00 +9°C° 0.9 mm 1 m/s 735 mmHg 93%
    10:00 +10°C° 0.9 mm 1 m/s 735 mmHg 92%
    11:00 +10°C° 0.7 mm 1 m/s 735 mmHg 92%
    12:00 +10°C° 0.7 mm 1 m/s 734 mmHg 92%
    13:00 +10°C° 0.7 mm 1 m/s 734 mmHg 92%
    14:00 +10°C° 0.6 mm 1 m/s 734 mmHg 93%
    15:00 +9°C° 0.6 mm 1 m/s 734 mmHg 94%
    16:00 +9°C° 0.6 mm 1 m/s 734 mmHg 95%
    17:00 +9°C° 0.1 mm 1 m/s 734 mmHg 95%
    18:00 +9°C° 0.1 mm 1 m/s 734 mmHg 94%
    19:00 +8°C° 0.1 mm 0 m/s 735 mmHg 93%
    20:00 +8°C° 0 mm 0 m/s 735 mmHg 93%
    21:00 +7°C° 0 mm 0 m/s 735 mmHg 93%
    22:00 +7°C° 0 mm 0 m/s 735 mmHg 93%
    23:00 +7°C° 0 mm 0 m/s 735 mmHg 92%

    28 Ianuarie, Marţi

    Timp Temperatura Precipitaţii Vânt Presiune Umiditate
    00:00 +6°C° 0 mm 0 m/s 735 mmHg 92%
    01:00 +6°C° 0 mm 0 m/s 735 mmHg 92%
    02:00 +7°C° 0 mm 1 m/s 735 mmHg 91%
    03:00 +7°C° 0 mm 1 m/s 735 mmHg 91%
    04:00 +7°C° 0 mm 1 m/s 735 mmHg 90%
    05:00 +6°C° 0 mm 1 m/s 735 mmHg 90%
    06:00 +6°C° 0 mm 1 m/s 735 mmHg 90%
    07:00 +6°C° 0 mm 1 m/s 735 mmHg 90%
    08:00 +8°C° 0 mm 1 m/s 735 mmHg 86%
    09:00 +9°C° 0 mm 1 m/s 735 mmHg 82%
    10:00 +10°C° 0 mm 1 m/s 735 mmHg 79%
    11:00 +11°C° 0 mm 1 m/s 735 mmHg 76%
    12:00 +11°C° 0 mm 1 m/s 735 mmHg 73%
    13:00 +12°C° 0 mm 2 m/s 734 mmHg 70%
    14:00 +12°C° 0 mm 1 m/s 734 mmHg 72%
    15:00 +12°C° 0 mm 1 m/s 734 mmHg 75%
    16:00 +11°C° 0 mm 1 m/s 734 mmHg 77%
    17:00 +10°C° 0 mm 1 m/s 734 mmHg 80%
    18:00 +10°C° 0 mm 1 m/s 734 mmHg 83%
    19:00 +9°C° 0 mm 1 m/s 734 mmHg 85%
    20:00 +9°C° 0 mm 1 m/s 734 mmHg 85%
    21:00 +9°C° 0 mm 1 m/s 734 mmHg 84%
    22:00 +8°C° 0 mm 1 m/s 735 mmHg 83%
    23:00 +9°C° 0 mm 1 m/s 734 mmHg 83%

    29 Ianuarie, Miercuri

    Timp Temperatura Precipitaţii Vânt Presiune Umiditate
    00:00 +8°C° 0 mm 2 m/s 734 mmHg 82%
    01:00 +8°C° 0 mm 2 m/s 734 mmHg 82%
    02:00 +8°C° 0 mm 2 m/s 734 mmHg 81%
    03:00 +8°C° 0 mm 2 m/s 733 mmHg 80%
    04:00 +9°C° 0 mm 2 m/s 733 mmHg 79%
    05:00 +9°C° 0.1 mm 2 m/s 733 mmHg 80%
    06:00 +10°C° 0.1 mm 1 m/s 733 mmHg 81%
    07:00 +10°C° 0.1 mm 1 m/s 733 mmHg 81%
    08:00 +9°C° 0.1 mm 2 m/s 733 mmHg 82%
    09:00 +10°C° 0.1 mm 2 m/s 734 mmHg 82%
    10:00 +10°C° 0.1 mm 2 m/s 734 mmHg 82%
    11:00 +12°C° 0.1 mm 2 m/s 733 mmHg 82%
    12:00 +11°C° 0.1 mm 3 m/s 733 mmHg 82%
    13:00 +12°C° 0.1 mm 3 m/s 732 mmHg 82%
    14:00 +12°C° 0.2 mm 3 m/s 732 mmHg 84%
    15:00 +11°C° 0.2 mm 3 m/s 732 mmHg 86%
    16:00 +12°C° 0.2 mm 2 m/s 732 mmHg 88%
    17:00 +10°C° 0.2 mm 2 m/s 733 mmHg 89%
    18:00 +11°C° 0.2 mm 1 m/s 733 mmHg 89%
    19:00 +10°C° 0.2 mm 1 m/s 733 mmHg 90%
    20:00 +10°C° 0.2 mm 1 m/s 733 mmHg 89%
    21:00 +10°C° 0.2 mm 1 m/s 733 mmHg 89%
    22:00 +10°C° 0.2 mm 1 m/s 733 mmHg 89%
    23:00 +10°C° 0.2 mm 1 m/s 733 mmHg 89%
    Arată mai mult